Home > Weather > Herten > Past weeks

Flag for Germany Weather for the Past 2 Weeks in Herten, North Rhine-Westphalia, Germany

Now
52 °F

Scattered clouds.


Feels Like: 46 °F
Forecast: 43 / 49 °F
Wind: 20 mph from Southwest

Location: Dortmund / Wickede

Current Time: Feb 7, 2016 at 9:56:02 AM

Latest Report: Feb 7, 2016 at 9:20 AM


Visibility: N/A

Pressure: 29.45 "Hg

Humidity: 58%

Dew point: 37 °F

Location of HertenLocation

Historic Weather in Herten — Graph

°F

Herten Temperature Yesterday

Maximum temperature yesterday: 52 °F (at 2:20 PM)
Minimum temperature yesterday: 45 °F (at 7:50 AM)
Average temperature yesterday: 49 °F

High & Low Weather Summary for the Past Weeks

 TemperatureHumidityPressure
High54 °F (Jan 25, 3:20 PM)94% (Feb 1, 7:20 AM)30.54 "Hg (Feb 1, 7:20 AM)
Low36 °F (Jan 28, 7:50 PM)53% (Jan 28, 2:20 PM)29.45 "Hg (Feb 7, 6:20 AM)
Average45 °F77%30.07 "Hg
* Reported Jan 23 8:20 AM — Feb 7 8:50 AM, Herten, Weather by CustomWeather, © 2016

Note: Actual official high and low records may vary slightly from our data, if they occured in-between our weather recording intervals... More about our weather records

Advertising

Herten Weather History for the Previous 24 Hours

 ConditionsComfort  
Time TempWeatherWind HumidityBarometerVisibility
8:50 AM
Sun, Feb 7
52 °FPassing clouds.22 mph58%29.45 "HgN/A
8:20 AM50 °FLight rain. Passing clouds.17 mph62%29.45 "HgN/A
7:50 AM50 °FLight rain. Clear.15 mph62%29.45 "HgN/A
7:20 AM50 °FSprinkles. Clear.16 mph58%29.45 "HgN/A
6:50 AM50 °FClear.16 mph58%29.45 "Hg10 mi
6:20 AM50 °FClear.14 mph58%29.45 "Hg10 mi
5:50 AM50 °FPassing clouds.15 mph58%29.47 "HgN/A
5:20 AM50 °FClear.16 mph58%29.47 "Hg10 mi
10:50 PM
Sat, Feb 6
50 °FClear.15 mph62%29.59 "Hg10 mi
9:50 PM50 °FClear.15 mph62%29.62 "Hg10 mi
9:20 PM50 °FClear.12 mph58%29.65 "Hg10 mi
8:50 PM50 °FClear.16 mph58%29.65 "Hg10 mi
8:20 PM50 °FClear.17 mph58%29.65 "Hg10 mi
7:50 PM48 °FClear.14 mph62%29.68 "Hg10 mi
7:20 PM50 °FClear.13 mph58%29.68 "Hg10 mi
6:50 PM50 °FClear.12 mph58%29.68 "Hg10 mi
6:20 PM48 °FClear.14 mph66%29.71 "Hg10 mi
5:50 PM48 °FClear.12 mph66%29.71 "Hg10 mi
5:20 PM50 °FPassing clouds.12 mph58%29.74 "HgN/A
4:50 PM50 °FSunny.14 mph58%29.74 "Hg10 mi
4:20 PM50 °FSunny.18 mph58%29.74 "Hg10 mi
3:50 PM52 °FSunny.16 mph54%29.77 "Hg10 mi
3:20 PM50 °FSunny.16 mph58%29.77 "Hg10 mi
2:50 PM52 °FSunny.22 mph58%29.77 "Hg10 mi
2:20 PM52 °FSunny.18 mph58%29.80 "Hg10 mi
1:50 PM50 °FPartly sunny.17 mph67%29.80 "HgN/A
1:20 PM50 °FPartly sunny.18 mph67%29.83 "HgN/A
12:50 PM50 °FPartly sunny.18 mph67%29.83 "HgN/A
12:20 PM48 °FPartly sunny.20 mph71%29.86 "HgN/A
11:50 AM48 °FScattered clouds.18 mph71%29.86 "HgN/A
11:20 AM48 °FSunny.17 mph71%29.86 "Hg10 mi
10:50 AM48 °FSunny.17 mph71%29.86 "Hg10 mi
10:20 AM46 °FSunny.17 mph76%29.86 "Hg10 mi
9:50 AM46 °FSunny.16 mph71%29.89 "Hg10 mi
9:20 AM45 °FSunny.15 mph76%29.89 "Hg10 mi
Weather by CustomWeather, © 2016

See weather overviewHow to use our weather pages